This is the latest recevied weather packets stored in our database for station/object KO4IDC-13. If no packets are shown the sender has not sent any weather packets the latest 1 day(s).
| Time | Temp. | Humidity | Pressure | Rain* | Wind** | Luminosity | Snow |
|---|---|---|---|---|---|---|---|
| 1836274611 | 18.89° C | 91% | 1019 hPa | 0 mm | 0.89 m/s, 265° | 0 W/m² | - |
| 1836274464 | 18.89° C | 90% | 1019 hPa | 0 mm | 0 m/s | 0 W/m² | - |
| 1836274309 | 18.89° C | 91% | 1019 hPa | 0 mm | 0 m/s | 0 W/m² | - |
| 1836274162 | 18.89° C | 90% | 1019 hPa | 0 mm | 0.45 m/s, 220° | 0 W/m² | - |
| 1836274008 | 18.89° C | 91% | 1018.9 hPa | 0 mm | 0 m/s | 0 W/m² | - |
| 1778047574 | 9.44° C | 98% | 1012 hPa | 1.78 mm | 0.45 m/s, 225° | 0 W/m² | - |
| 1778047262 | 9.44° C | 98% | 1012.2 hPa | 1.78 mm | 1.34 m/s, 269° | 0 W/m² | - |
| 1778046960 | 9.44° C | 98% | 1012.7 hPa | 1.78 mm | 0.89 m/s, 248° | 0 W/m² | - |
| 1778046656 | 9.44° C | 98% | 1012.2 hPa | 1.27 mm | 2.24 m/s, 245° | 0 W/m² | - |
| 1778046353 | 9.44° C | 98% | 1011.8 hPa | 1.27 mm | 1.79 m/s, 239° | 0 W/m² | - |
| 1778046049 | 9.44° C | 98% | 1012 hPa | 0 mm | 1.34 m/s, 237° | 0 W/m² | - |
| 1778045747 | 9.44° C | 98% | 1011.7 hPa | 0 mm | 1.34 m/s, 267° | 0 W/m² | - |
| 1778045446 | 9.44° C | 98% | 1012.1 hPa | 0 mm | 1.34 m/s, 283° | 0 W/m² | - |
| 1778045143 | 9.44° C | 98% | 1012 hPa | 0 mm | 1.34 m/s, 239° | 0 W/m² | - |
| 1778044841 | 9.44° C | 98% | 1011.8 hPa | 0 mm | 0.89 m/s, 239° | 0 W/m² | - |
| 1778044538 | 9.44° C | 99% | 1011.7 hPa | 0 mm | 0.89 m/s, 280° | 0 W/m² | - |
| 1778044234 | 9.44° C | 99% | 1011.6 hPa | 0 mm | 1.34 m/s, 325° | 0 W/m² | - |
| 1778043932 | 9.44° C | 98% | 1011.3 hPa | 1.78 mm | 1.79 m/s, 223° | 0 W/m² | - |
| 1778043630 | 9.44° C | 99% | 1011.4 hPa | 1.78 mm | 0.89 m/s, 204° | 0 W/m² | - |
| 1778043326 | 9.44° C | 99% | 1011.3 hPa | 1.27 mm | 1.34 m/s, 276° | 0 W/m² | - |
| 1778043023 | 10° C | 99% | 1011.5 hPa | 1.27 mm | 0.89 m/s, 222° | 0 W/m² | - |
| 1778042721 | 10° C | 99% | 1011.8 hPa | 0 mm | 1.34 m/s, 232° | 0 W/m² | - |
| 1778042417 | 10° C | 99% | 1012 hPa | 3.05 mm | 2.24 m/s, 253° | 0 W/m² | - |
| 1778042114 | 10° C | 99% | 1011.3 hPa | 6.1 mm | 1.34 m/s, 293° | 0 W/m² | - |
| 1778041813 | 10° C | 99% | 1011.1 hPa | 6.1 mm | 2.68 m/s, 331° | 0 W/m² | - |
* Rain latest hour (hover to see other rain measurements)
** Current wind speed in m/s (hover to see current wind gust speed)